#timestamp,LO_Frequency,Hit,StdDev 
1642237215.1,286047002.8,N
1642237235.9,286047002.5,N
1642237255.7,286047004.4,Y
1642237275.6,286047002.4,P
1642237295.4,286047002.0,P
1642237315.2,286047004.2,P
1642237335.1,286047002.3,N
1642237336.0,286047002.3,N
1642237355.8,286047000.3,N
1642237375.7,286047001.0,N
1642237395.5,286046997.3,N
1642237415.3,286046997.6,N
1642237435.2,286046999.1,N
1642237455.0,286046998.5,N
1642237455.9,286046998.5,N
1642237475.8,286047000.8,N
1642237495.6,286047000.3,N
1642237515.4,286047000.7,N
1642237535.3,286047000.3,N
1642237555.1,286046999.8,N
1642237575.8,286047000.9,N
1642237595.7,286047001.5,N
1642237615.5,286047001.0,N
1642237635.4,286046998.3,N
1642237655.2,286047000.7,N
1642237675.0,286047000.3,N
1642237675.9,286047000.3,N
1642237695.8,286047000.0,N
1642237715.6,286047001.9,N
1642237735.4,286047004.4,N
1642237755.3,286047002.4,N
1642237775.1,286047000.2,N
1642237795.9,286046999.9,N
1642237815.7,286047000.0,N
1642237835.5,286047000.1,N
1642237855.4,286047000.0,N
1642237875.2,286047002.6,N
1642237895.0,286047000.1,N
1642237895.9,286047000.1,N
1642237915.8,286046998.2,N
1642237935.6,286046999.6,N
1642237955.5,286046999.0,N
1642237975.3,286046999.6,N
1642237995.1,286046999.1,N
1642238015.9,286046999.5,N
1642238035.7,286047000.9,N
1642238055.6,286047001.0,N
1642238075.4,286047000.9,N
1642238095.2,286046997.2,N
1642238115.1,286046996.6,N
1642238116.0,286046996.6,N
1642238135.8,286046997.2,N
1642238155.6,286046999.3,N
1642238175.5,286046998.9,N
1642238195.3,286046998.6,N
1642238215.2,286047000.7,N
1642238235.9,286046999.9,N
1642238255.7,286047002.5,N
1642238275.6,286047000.4,N
1642238295.4,286047000.1,N
1642238315.3,286047002.7,N
1642238335.1,286046999.7,N
1642238336.0,286046999.7,N
1642238355.8,286047000.0,N
1642238375.7,286047000.2,N
1642238395.5,286047001.9,N
1642238415.3,286047004.2,N
1642238435.2,286047002.7,N
1642238455.0,286046998.9,N
1642238455.9,286046998.9,N
1642238475.8,286046998.1,N
1642238495.6,286046998.2,N
1642238515.4,286046997.2,N
1642238535.3,286046997.2,N
1642238555.1,286046998.4,N
1642238575.8,286047000.7,N
1642238595.7,286047000.2,N
1642238615.5,286047002.7,N
1642238635.4,286047001.7,N
1642238655.2,286047001.3,N
1642238675.0,286047004.4,N
1642238675.9,286047004.4,N
1642238695.8,286047004.0,N
1642238715.6,286047001.9,N
1642238735.5,286047001.6,N
1642238755.3,286047001.5,N
1642238775.1,286047000.6,N
1642238795.9,286047000.3,N
1642238815.7,286047002.6,N
1642238835.5,286047002.7,N
1642238855.4,286047001.0,N
1642238875.2,286046998.1,N
1642238895.0,286046998.9,N
1642238896.0,286046998.9,N
1642238915.8,286046998.1,N
1642238935.6,286046998.3,N
1642238955.5,286046999.3,N
1642238975.3,286047000.8,N
1642238995.1,286047000.7,N
1642239015.9,286047000.5,N
1642239035.7,286047000.9,N
1642239055.6,286046998.4,N
1642239075.4,286046997.7,N
1642239095.2,286046997.7,N
1642239115.1,286046997.5,N
1642239116.0,286046997.5,N
1642239135.8,286046999.1,N
1642239155.6,286046999.0,N
1642239175.5,286046996.7,N
1642239195.3,286046998.2,N
1642239215.2,286047001.0,N
1642239235.0,286047000.5,N
1642239235.9,286047000.5,N
1642239255.7,286047001.1,N
1642239275.6,286047000.0,N
1642239295.4,286047000.3,N
1642239315.3,286046999.5,N
1642239335.1,286047000.8,N
1642239336.0,286047000.8,N
1642239355.8,286047000.0,N
1642239375.7,286047000.2,N
1642239395.5,286047004.0,Y
1642239415.4,286047001.4,P
1642239435.2,286047002.2,N
1642239455.0,286047000.6,N
1642239455.9,286047000.6,N
1642239475.8,286047001.7,N
1642239495.6,286047002.0,N
1642239515.4,286047000.8,N
1642239535.3,286046998.9,N
1642239555.1,286046998.2,N
1642239575.9,286046998.1,N
1642239595.7,286046996.6,N
1642239615.5,286047001.2,N
1642239635.4,286046997.0,N
1642239655.2,286046999.5,N
1642239675.0,286046999.2,N
1642239676.0,286046999.2,N
1642239695.8,286046997.2,N
1642239715.6,286046995.5,N
1642239735.5,286046995.3,N
1642239755.3,286046999.0,N
1642239775.1,286046996.7,N
1642239795.9,286046998.6,N
1642239815.7,286047000.3,N
1642239835.6,286046999.8,N
1642239855.4,286047000.2,N
1642239905.3,286046998.5,E
1642239915.2,286047000.4,N
1642239935.0,286047002.4,P
1642239935.9,286047002.4,N
1642239955.8,286047000.1,N
1642239975.6,286046999.9,N
1642239995.4,286047002.8,N
1642240015.3,286047001.8,N
1642240035.1,286047001.8,N
1642240055.9,286047004.2,Y
1642240075.7,286047003.7,P
1642240095.5,286047003.9,P
1642240115.4,286047004.2,P
1642240135.2,286047002.8,N
1642240155.1,286047002.7,N
1642240156.0,286047002.7,N
1642240175.8,286047002.5,N
1642240195.7,286047002.6,Y
1642240215.5,286046996.8,P
1642240235.3,286046996.5,N
1642240255.2,286046997.3,N
1642240275.9,286046997.5,N
1642240295.7,286046996.8,N
1642240315.6,286046996.6,N
1642240335.4,286046999.4,N
1642240355.3,286046996.6,N
1642240375.1,286046995.4,N
1642240395.8,286046992.0,Y
1642240415.7,286046995.2,P
1642240435.5,286046996.7,N
1642240455.4,286047001.2,N
1642240475.2,286046996.7,N
1642240495.0,286046996.8,N
1642240496.0,286046996.8,N
1642240515.8,286046997.7,N
1642240535.6,286046996.5,N
1642240555.5,286047001.0,N
1642240575.3,286047002.4,N
1642240595.1,286047000.4,N
1642240615.9,286047001.9,N
1642240635.7,286047002.4,N
1642240655.6,286047000.5,N
1642240675.4,286047000.9,N
1642240695.2,286047000.6,N
1642240715.1,286046998.1,N
1642240716.0,286046998.1,N
1642240735.1,286046998.3,N
1642240755.8,286047000.3,N
1642240775.7,286046998.5,N
1642240795.5,286046998.7,N
